COSMOS 2251 DEB, 35439

Orbit data source: Space-Track

COSMOS 2251 DEB, 35439 is space debris in LEO originally from a launch on Wed, 16 Jun 1993 UTC launched from the Plesetsk Missile And Space Complex (PKMTR). The debris from Iridium 33, an American commercial communications satellite, has been tracked extensively since its accidental collision with the defunct Russian satellite Cosmos 2251 in 2009. This event, occurring at high speed in low Earth orbit (LEO), generated thousands of pieces of space debris, significantly increasing the risk of further collisions. The Iridium 33 debris cloud has impacted space traffic management and orbital debris mitigation strategies, making it a subject of ongoing study in space situational awareness.

Loading next visibility...
Identifier
35439, 1993-036AKH
Orbit
LEO
Country
Flag of CISCIS
Related business
Manufacturer
Unknown
Mission
Spacecraft
Bus & Motor
Unknown
Mass
Unknown
Launch date (UTC)
1993-06-16 (32 years ago)
Launch vehicle
Unknown
Launch site
Plesetsk Missile And Space Complex (PKMTR)
Object type
Payload
Rocket body
Debris
Shape & HBR
Unknown shape, 0.1 m
Radar Cross Section
Small (<0.1 m²)

Expand to show TLE details & history
Last TLE update: 1 day ago

TLE from 1 day ago
0 COSMOS 2251 DEB
1 35439U 93036AKH 25342.73163462  .00003821  00000-0  23366-2 0  9999
2 35439  74.0192 141.6061 0241739 311.7957  68.9858 13.92782846839056
Epoch: 2025-12-08T17:33Z
TLE epoch observation values (Epoch: 2025-12-08T17:33:33.231Z)
Latitude
22.46305°
Longitude
167.2553°
Altitude
861.775 km
Speed
7.454 km/s
True Right ascension
09h 53m 28s
True Declination
22° 20' 37"
Sunlit
Object was in daylight at epoch
Visualization orbit readout
Latitude
Unknown
Longitude
Unknown
Altitude
Unknown
Speed
Unknown
Apparent Right ascension
Unknown
Apparent Declination
Unknown
Sunlit
N/A
Visualization observer readout
Local Sidereal Time
17:40:34
Azimuth
Unknown
Elevation
Unknown
Doppler factor
Unknown
Orbital elements
Apogee altitude
1,092.908 km
Perigee altitude
740.225 km
Semi-major axis
7,294.703 km
Eccentricity
0.02417
Inclination
74.0192°
RAAN
141.6061°
Arg. of periapsis
311.7957°
True anomaly
71.5991°
Mean anomaly
68.9858°
Eccentric anomaly
70.28971°
Mean motion
3.48363 °/min
Orbital period
103.34 mins
BSTAR
0.0023366
Loading maneuver chart data...
Computing Atmospheric mass density...

Documentation

Showing up to 5 results
|